Simultaneous Nadir Overpasses (SNOs) Predictions

Prediction of SNOs between NOAA-19 and TERRA Satellite Orbit:

Table of predicted SNOs for the next 14.0 days since TLE Epoch: 2/26/2022
Index Date (NOAA-19) Time (NOAA-19) Lat,Lon (NOAA-19) SZA (NOAA-19 ) Date (TERRA) Time (TERRA) Lat,Lon (TERRA) SZA (TERRA ) Distance(km) Time Diff (sec)
1 02/26/2022 12:18:39 80.66, 30.88 90.66 02/26/2022 12:19:19 80.67, 30.86 90.67 0.93 40
2 02/26/2022 13:09:34 -80.65,-161.64 89.35 02/26/2022 13:08:46 -80.67,-161.56 89.35 1.83 48
3 02/28/2022 18:42:40 80.66, -64.90 89.83 02/28/2022 18:42:27 80.66, -65.01 89.82 2.09 13
4 03/03/2022 00:15:39 -80.67, 31.49 91.03 03/03/2022 00:16:09 -80.65, 31.43 91.05 2.58 30
5 03/03/2022 01:06:42 80.67,-161.07 88.97 03/03/2022 01:05:35 80.65,-160.91 88.95 3.14 67
6 03/05/2022 05:48:44 80.68, 128.20 88.13 03/05/2022 05:49:49 80.67, 128.20 88.15 0.56 65
7 03/05/2022 06:39:40 -80.66, -64.17 91.87 03/05/2022 06:39:16 -80.67, -64.17 91.87 0.84 24
8 03/07/2022 12:12:45 80.68, 32.32 87.27 03/07/2022 12:12:57 80.66, 32.23 87.25 2.61 12
9 03/09/2022 17:45:45 -80.69, 128.85 93.60 03/09/2022 17:46:38 -80.67, 128.95 93.58 2.53 53
10 03/09/2022 18:36:46 80.68, -63.59 86.41 03/09/2022 18:36:04 80.67, -63.44 86.40 2.88 42



Historial Predications of SNOs between NOAA-19 and TERRA
